Regional Weather Roundup
Issued by NWS

Home | Current Version | Previous Version | Graphics & Text | Print | Product List | Glossary On
Versions: 1 2 3 4 5 6 7 8 9 10 11 12 13 14 15 16 17 18 19 20 21 22 23 24 25 26 27 28 29 30 31 32 33 34 35 36 37 38 39 40 41 42 43 44 45 46 47 48 49 50
000
ASUS43 KLOT 140008
RWRIL

ILLINOIS REGIONAL WEATHER ROUNDUP
NATIONAL WEATHER SERVICE CHICAGO/ROMEOVILLE IL
600 PM CST SAT FEB 13 2016

NOTE: "FAIR" INDICATES FEW OR NO CLOUDS BELOW 12,000 FEET WITH NO
SIGNIFICANT WEATHER AND/OR OBSTRUCTIONS TO VISIBILITY.

* THESE STATIONS ARE NOT UNDER NWS QUALITY CONTROL. THEY ALSO MAY NOT
  REPORT WEATHER SUCH AS PRECIPITATION OR FOG.

ILZ001-002-007-009-015-016-024-140100-
NORTHWEST ILLINOIS

CITY           SKY/WX    TMP DP  RH WIND       PRES   REMARKS
MOLINE         CLOUDY    18  -5  36 S5        30.49F WCI  11
6HR MIN TEMP:  15; 6HR MAX TEMP:  20;

STERLING*      CLOUDY    14  -4  44 CALM      30.48S
SAVANNA*       CLOUDY    12  -3  49 NE6       30.50F WCI   3
$$

ILZ003-004-008-010-011-017-018-140100-
NORTH CENTRAL ILLINOIS

CITY           SKY/WX    TMP DP  RH WIND       PRES   REMARKS
ROCKFORD       PTCLDY    12  -4  48 W5        30.52S WCI   4
6HR MIN TEMP:  12; 6HR MAX TEMP:  17;

FREEPORT*      PTCLDY    11  -5  47 CALM      30.51S
ROCHELLE*      CLOUDY    13  -1  54 CALM      30.50S
DE KALB*       CLOUDY    11  -3  55 W3        30.49S
$$

ILZ005-006-012>014-019>023-140100-
NORTHEAST ILLINOIS

CITY           SKY/WX    TMP DP  RH WIND       PRES   REMARKS
CHICAGO-OHARE  PTCLDY    13  -5  44 NW5       30.49F WCI   5
6HR MIN TEMP:  12; 6HR MAX TEMP:  17;

CHICAGO-MIDWAY PTCLDY    16  -7  35 NW6       30.51F WCI   7
6HR MIN TEMP:  14; 6HR MAX TEMP:  19;

AURORA         CLEAR     14   1  56 W3        30.51S
6HR MIN TEMP:  13; 6HR MAX TEMP:  18;

LANSING*       CLEAR     16  -8  35 CALM      30.51F
JOLIET*        CLEAR     17  -3  43 CALM      30.52S
WAUKEGAN       CLEAR     10  -6  48 CALM      30.49F
6HR MIN TEMP:  10; 6HR MAX TEMP:  14;

DUPAGE AIRPORT CLEAR     11  -5  48 N3        30.49F
6HR MIN TEMP:  10; 6HR MAX TEMP:  17;

KANKAKEE*      MOCLDY    16  -1  45 CALM      30.52S
WHEELING       CLEAR     12  -5  46 N6        30.52F WCI   3
6HR MIN TEMP:  12; 6HR MAX TEMP:  17;

MORRIS*        PTCLDY    15  -1  49 CALM      30.50R
ROMEOVILLE*    CLEAR     14  -4  45 W3        30.51S
NORTHERLY ISL    N/A     16  -8  34 W6          N/A  WCI   8
$$

LMZ740>746-140100-
SOUTHERN LAKE MICHIGAN

STATION/POSITION SKY/WX   TEMP    WIND        PRES    VSBY  WAVE
                          AIR SEA DIR/SP/G                  HT/PER
                          (F)     (DEG/KT/KT) (MB)    (MI)  (FT/S)
HARRISON CRIB              17     310/  4/  6   N/A
BURNHAM HARBOR             17     280/  4/  7   N/A
CALUMET HARBOR             16                 1032.5F
BURNS HARBOR               15     340/  3/  6 1033.9F
MICHIGAN CITY              14     300/  9/ 11   N/A
$$

ILZ025>027-034>036-040-047-049-050-058-095>099-140100-
WEST-CENTRAL ILLINOIS

CITY           SKY/WX    TMP DP  RH WIND       PRES   REMARKS
QUINCY         CLOUDY    18   2  49 SE8       30.46F WCI   8
GALESBURG*     PTCLDY    17  -2  43 CALM      30.48F
MACOMB*        CLOUDY    19   1  45 SE5       30.51F WCI  12
JACKSONVILLE*  CLOUDY    21   7  53 E8        30.49F WCI  12
PITTSFIELD*    CLOUDY    20   6  55 E9        30.49F WCI   9
$$

ILZ028>032-037-038-041>044-048-051>054-059>061-140100-
CENTRAL ILLINOIS

CITY           SKY/WX    TMP DP  RH WIND       PRES   REMARKS
PONTIAC        CLOUDY    19  -1  42 N3        30.51F
BLOOMINGTON    MOCLDY    17  -1  45 CALM      30.50F
DECATUR        PTCLDY    19   0  43 SE3       30.51F
PEORIA         CLOUDY    18  -4  37 CALM      30.51F
6HR MIN TEMP:  17; 6HR MAX TEMP:  21;

LACON*         CLOUDY    17  -5  36 CALM      30.51S
LINCOLN*       CLOUDY    19   0  42 CALM      30.52F
SPRINGFIELD    CLOUDY    20   1  43 E5        30.51F WCI  13
6HR MIN TEMP:  17; 6HR MAX TEMP:  22;

TAYLORVILLE    CLOUDY    19   3  49 E6        30.52F WCI  11
$$

ILZ033-039-045-046-055>057-062-063-140100-
EAST-CENTRAL ILLINOIS

CITY           SKY/WX    TMP DP  RH WIND       PRES   REMARKS
CHAMPAIGN      CLOUDY    17   2  51 CALM      30.51F
RANTOUL*       CLOUDY    19   1  45 N3        30.51S
MATTOON        PTCLDY    17   0  47 E3        30.52F
PARIS*         MOCLDY    17   4  55 CALM      30.54S
$$

ILZ079-100>102-140100-
SOUTHWEST ILLINOIS

CITY           SKY/WX    TMP DP  RH WIND       PRES   REMARKS
BELLEVILLE     CLOUDY    22   4  45 E5        30.51F WCI  16
CAHOKIA*       CLOUDY    23   0  36 E8        30.52F WCI  14
SPARTA*        CLOUDY    22   3  44 CALM      30.54S
$$

ILZ064>066-069>071-074>076-080>082-084>086-088>090-092>094-140100-
SOUTH-CENTRAL ILLINOIS

CITY           SKY/WX    TMP DP  RH WIND       PRES   REMARKS
CARBONDALE     CLOUDY    24   2  38 E3        30.53F
6HR MIN TEMP:  22; 6HR MAX TEMP:  26;

CAIRO*         CLOUDY    27   8  46 NE6       30.53F WCI  20
EFFINGHAM*     PTCLDY    20   5  52 CALM      30.56S
MARION         CLOUDY    25   5  42 NE6       30.54F WCI  18
MT. VERNON     CLOUDY    21   1  42 E6        30.53F WCI  14
CENTRALIA*     CLOUDY    23   8  52 E6        30.52F WCI  16
SALEM*         PTCLDY    23   4  44 E6        30.53S WCI  15
METROPOLIS*    CLOUDY    26   7  44 N6        30.54S WCI  20
$$

ILZ067-068-072-073-078-083-087-091-140100-
SOUTHEAST ILLINOIS

CITY           SKY/WX    TMP DP  RH WIND       PRES   REMARKS
LAWRENCEVILLE  CLOUDY    19   2  47 N6        30.56S WCI  11
FLORA*         CLOUDY    22   1  40 NE6       30.55F WCI  14
FAIRFIELD*     CLOUDY    22   2  42 NE5       30.54S WCI  16
HARRISBURG*    CLOUDY    23   8  52 E6        30.55S WCI  16
ROBINSON*      PTCLDY    18   2  51 N5        30.57S WCI  11
CARMI*         CLOUDY    23   5  47 NE3       30.54F
$$

ABBREVIATIONS USED IN REMARKS
   TC - TEMPERATURE IN CELSIUS
  WCI - WIND CHILL INDEX
   HX - HEAT INDEX
  VSB - VISIBILITY
$$




USA.gov is the U.S. government's official web portal to all federal, state and local government web resources and services.